Voltar ao catálogo

STARLINK-37907

AtivoComunicaçõesVLEO
NORAD 69959·PAYLOAD·🇺🇸 United States

Lançado Jul 9, 2026 de Cape Canaveral Space Force Station

Loading…

Próximas Passagens (próximas 24 horas)

TLE

AtualizadoSource: CelesTrak SupGP

Época: Sep 14, 2026, 21:16 UTC

1 69959C 26157S   26257.88659722  .00001540  00000+0  45508-4 0  2570
2 69959  53.1583   0.2145 0001265  82.9588  57.3861 15.34375348    15

Acompanhe STARLINK-37907 em tempo real com AllMySat

Download on the App Store